Location: Sabalos
(43.2860°N, 0.1414°E)
Time: 10:17:47
(UTC+00:00)

Cosmos 1812 Rocket - Pass Details

Date: 05 July 2020
Orbit: 605 x 633 km, 82.5° (Epoch: 05 August)

Event Time Altitude Azimuth Distance (km) Brightness Sun altitude
Rises 20:16:39 0° 356° (N) 2,878 7.7 -5.9°
Reaches altitude 10° 20:18:55 10° 1° (N) 1,966 6.7 -6.2°
Maximum altitude 20:23:11 54° 79° (E) 743 3.8 -6.8°
Drops below altitude 10° 20:27:24 10° 157° (SSE) 1,947 5.6 -7.4°
Enters shadow 20:28:10 - 159° (SSE) 2,256 5.9 -7.5°
